Retour au catalogue

STARLINK-32721

ActifCommunicationsVLEO
NORAD 62438·PAYLOAD·🇺🇸 United States

Lancé Dec 29, 2024 depuis Vandenberg Space Force Base

Loading…

Prochains Passages (prochaines 24 heures)

TLE

FraisSource: CelesTrak SupGP

Époque: Sep 15, 2026, 02:10 UTC

1 62438C 24251G   26258.09076389 -.00079003  00000+0 -23342-2 0  2586
2 62438  53.1577 172.8489 0001410  84.3194 315.4431 15.34429240    13

Suivez STARLINK-32721 en temps réel avec AllMySat

Download on the App Store